This demonstration page uses our WeatherBlox Daily Observations layout. Learn more.

Hourly Observations for December 11, 2016

Temp ( °F °C ) Dew Point ( °F °C ) Humidity (%) Winds ( mph kmh ) Pressure ( in mb ) Visibility ( mi km ) Precip ( " mm )
12:15 am 00:15 Clear 28 -2.5 23 -5.1 83 83 SSE 6 9 29.8 1009 10 16.0934 0 0
12:35 am 00:35 Clear 27 -3 23 -5.1 86 86 SSE 7 11 29.8 1009 10 16.0934 0 0
12:55 am 00:55 Clear 26 -3.6 22 -5.8 85 85 SSE 6 9 29.83 1010 10 16.0934 0 0
1:15 am 01:15 Clear 27 -3 23 -4.8 88 88 S 3 6 29.8 1009 10 16.0934 0 0
1:35 am 01:35 Clear 25 -3.8 22 -5.6 87 87 S 5 7 29.83 1010 10 16.0934 0 0
1:55 am 01:55 Clear 25 -4 22 -5.5 89 89 S 5 7 29.83 1010 10 16.0934 0 0
2:15 am 02:15 Clear 24 -4.2 22 -5.7 89 89 SSE 3 6 29.83 1010 10 16.0934 0 0
2:35 am 02:35 Clear 24 -4.3 22 -5.5 91 91 S 5 7 29.83 1010 10 16.0934 0 0
2:55 am 02:55 Clear 23 -4.9 21 -6.2 91 91 Calm 29.83 1010 10 16.0934 0 0
3:15 am 03:15 Clear 24 -4.3 22 -5.4 92 92 Calm 29.85 1011 10 16.0934 0 0
3:35 am 03:35 Clear 21 -6 19 -7.2 91 91 Calm 29.88 1012 10 16.0934 0 0
3:55 am 03:55 Clear 20 -6.4 19 -7.4 93 93 NW 3 6 29.88 1012 10 16.0934 0 0
4:15 am 04:15 Clear 22 -5.5 20 -6.5 93 93 NNW 6 9 29.83 1010 10 16.0934 0 0
4:35 am 04:35 Clear 22 -5.5 20 -6.5 93 93 NW 8 13 29.85 1011 10 16.0934 0 0
4:55 am 04:55 Clear 24 -4.2 22 -5.5 91 91 NNW 10 17 29.83 1010 10 16.0934 0 0
5:15 am 05:15 Clear 26 -3.1 23 -4.9 88 88 NNW 10 17 29.85 1011 10 16.0934 0 0
5:35 am 05:35 Clear 27 -2.6 24 -4.6 86 86 N 15 24 29.83 1010 10 16.0934 0 0
5:55 am 05:55 Clear 26 -3.1 22 -5.8 82 82 NNW 14 22 29.88 1012 10 16.0934 0 0
6:15 am 06:15 Partly Cloudy 24 -4.7 19 -7.4 82 82 N 15 24 29.88 1012 10 16.0934 0 0
6:35 am 06:35 Mostly Cloudy 23 -4.8 19 -7.3 83 83 N 12 19 29.91 1013 10 16.0934 0 0
6:55 am 06:55 Mostly Cloudy 23 -4.8 19 -7.5 82 82 N 14 22 29.91 1013 10 16.0934 0 0
7:15 am 07:15 Partly Cloudy 23 -5 18 -7.6 82 82 N 15 24 29.91 1013 10 16.0934 0 0
7:35 am 07:35 Partly Cloudy 23 -4.8 18 -7.6 81 81 N 17 28 29.91 1013 10 16.0934 0 0
7:55 am 07:55 Partly Cloudy 23 -5 18 -7.7 82 82 N 18 30 29.91 1013 10 16.0934 0 0
8:15 am 08:15 Mostly Cloudy 23 -5.2 18 -8 81 81 N 21 33 29.97 1015 10 16.0934 0 0
8:35 am 08:35 Cloudy 22 -5.5 17 -8.4 80 80 N 17 28 30 1016 10 16.0934 0 0
8:55 am 08:55 Cloudy 22 -5.6 17 -8.6 80 80 N 14 22 30.03 1017 10 16.0934 0 0
9:15 am 09:15 Cloudy 22 -5.5 16 -8.9 77 77 N 17 28 30.03 1017 10 16.0934 0 0
9:35 am 09:35 Cloudy 23 -5.2 16 -8.8 76 76 N 16 26 30.03 1017 10 16.0934 0 0
9:55 am 09:55 Cloudy 23 -5 16 -9 74 74 N 13 20 30.06 1018 10 16.0934 0 0
10:15 am 10:15 Cloudy 23 -5.2 15 -9.2 74 74 N 14 22 30.06 1018 10 16.0934 0 0
10:35 am 10:35 Cloudy 23 -5.1 15 -9.2 73 73 NNW 13 20 30.09 1019 10 16.0934 0 0
10:55 am 10:55 Cloudy 23 -5 15 -9.5 71 71 N 17 28 30.09 1019 10 16.0934 0 0
11:15 am 11:15 Cloudy 23 -4.8 15 -9.4 71 71 NNW 16 26 30.09 1019 10 16.0934 0 0
11:35 am 11:35 Mostly Cloudy 24 -4.7 15 -9.3 71 71 NNW 14 22 30.09 1019 10 16.0934 0 0
11:55 am 11:55 Partly Cloudy 24 -4.5 15 -9.2 70 70 NNW 14 22 30.09 1019 10 16.0934 0 0
12:15 pm 12:15 Partly Cloudy 25 -3.9 16 -8.7 70 70 N 15 24 30.06 1018 10 16.0934 0 0
12:35 pm 12:35 Sunny 25 -3.7 16 -8.8 68 68 NW 13 20 30.06 1018 10 16.0934 0 0
12:55 pm 12:55 Sunny 27 -3 17 -8.3 67 67 NW 12 19 30.06 1018 10 16.0934 0 0
1:15 pm 13:15 Sunny 28 -2.2 18 -8 65 65 NNW 12 19 30.06 1018 10 16.0934 0 0
1:35 pm 13:35 Sunny 29 -1.5 17 -8.2 61 61 NW 15 24 30.06 1018 10 16.0934 0 0
1:55 pm 13:55 Sunny 31 -0.4 17 -8.5 55 55 NW 15 24 30.03 1017 10 16.0934 0 0
2:15 pm 14:15 Sunny 32 0 16 -9.1 51 51 NNW 12 19 30.03 1017 10 16.0934 0 0
2:35 pm 14:35 Sunny 32 0 15 -9.5 49 49 NNW 12 19 30.03 1017 10 16.0934 0 0
2:55 pm 14:55 Partly Cloudy 32 0.2 14 -10.1 46 46 NNW 15 24 30.03 1017 10 16.0934 0 0
3:15 pm 15:15 Sunny 33 0.5 14 -10.1 45 45 NNW 10 17 30.03 1017 10 16.0934 0 0
3:35 pm 15:35 Sunny 32 0.2 14 -10.2 46 46 NW 9 15 30.06 1018 10 16.0934 0 0
3:55 pm 15:55 Partly Cloudy 32 0.2 13 -10.5 45 45 NW 15 24 30.06 1018 10 16.0934 0 0
4:15 pm 16:15 Sunny 32 0 13 -10.3 46 46 NNW 7 11 30.06 1018 10 16.0934 0 0
4:35 pm 16:35 Sunny 32 0.1 13 -10.3 46 46 NNW 8 13 30.06 1018 10 16.0934 0 0
4:55 pm 16:55 Sunny 31 -0.7 13 -10.6 47 47 NNW 8 13 30.09 1019 10 16.0934 0 0
5:15 pm 17:15 Clear 28 -2.1 12 -11 51 51 NNW 6 9 30.09 1019 10 16.0934 0 0
5:35 pm 17:35 Clear 25 -3.9 11 -11.8 55 55 W 3 6 30.15 1021 10 16.0934 0 0
5:55 pm 17:55 Clear 24 -4.2 11 -11.5 57 57 W 3 6 30.15 1021 10 16.0934 0 0
6:15 pm 18:15 Clear 24 -4.5 11 -11.6 58 58 W 3 6 30.15 1021 10 16.0934 0 0
6:35 pm 18:35 Clear 24 -4.5 12 -11.2 60 60 W 3 6 30.15 1021 10 16.0934 0 0
6:55 pm 18:55 Clear 23 -5.2 11 -11.7 61 61 Calm 30.15 1021 10 16.0934 0 0
7:15 pm 19:15 Clear 17 -8.5 8 -13.2 69 69 Calm 30.18 1022 10 16.0934 0 0
7:35 pm 19:35 Clear 16 -8.9 9 -12.9 73 73 Calm 30.18 1022 10 16.0934 0 0
7:55 pm 19:55 Clear 16 -9.1 9 -13 74 74 Calm 30.24 1024 10 16.0934 0 0
8:15 pm 20:15 Clear 16 -8.9 8 -13.3 71 71 Calm 30.21 1023 10 16.0934 0 0
8:35 pm 20:35 Clear 18 -7.7 11 -11.7 73 73 Calm 30.21 1023 10 16.0934 0 0
8:55 pm 20:55 Clear 14 -9.9 7 -13.7 74 74 Calm 30.24 1024 10 16.0934 0 0
9:15 pm 21:15 Clear 13 -10.5 7 -14 76 76 Calm 30.24 1024 10 16.0934 0 0
9:35 pm 21:35 Clear 16 -9 10 -12.3 77 77 Calm 30.21 1023 10 16.0934 0 0
9:55 pm 21:55 Clear 17 -8.5 10 -12.5 73 73 Calm 30.21 1023 10 16.0934 0 0
10:15 pm 22:15 Clear 14 -9.9 8 -13.2 77 77 SSE 3 6 30.24 1024 10 16.0934 0 0
10:35 pm 22:35 Clear 13 -10.5 8 -13.6 78 78 ESE 3 6 30.24 1024 10 16.0934 0 0
10:55 pm 22:55 Clear 13 -10.5 8 -13.6 78 78 Calm 30.24 1024 10 16.0934 0 0
11:15 pm 23:15 Clear 15 -9.5 9 -12.6 78 78 ESE 6 9 30.24 1024 10 16.0934 0 0
11:35 pm 23:35 Clear 14 -10.2 8 -13.5 77 77 SE 6 9 30.27 1025 10 16.0934 0 0
11:55 pm 23:55 Clear 14 -9.8 9 -12.8 79 79 SSE 7 11 30.24 1024 10 16.0934 0 0

Powered by AerisWeather